Aérodrome :
LOGIN :

S'inscrire | Disclaimer

   EN    FR    IT 

 










Légende :    VFR   VFR Marginal   IFR   IFR Intensif   IFR Très Intensif
Visi : 
Plafond : 
>= 8 km
>= 3000ft
5 à 8 km
1000 à 3000 ft
1500m à 5 km
500 à 1000 ft
800 à 1500m
200 à 500 ft
< 800m
< 200 ft
Symboles :   Orages  Brouillard  Fortes neiges  Fortes précipitations  Vent > 20 kt
SIGMETs :   Divers  Orages  Givrage  Turbulence  Onde Orograph.  Cendres Volcan.







- Altitude de l'aérodrome : 231 ft
- Code IATA : WTN


EGXW - RAF Waddington

DERNIER METAR :
  • 232050Z 04007KT 7000 HZ BKN220 09/08 Q0997 WHT NOSIG

METARs EXPIRÉS :
  • 231950Z 06010KT 9000 HZ BKN220 10/08 Q0997 BLU TEMPO 6000 WHT

TAF TAF EGXW
Valide du 23 à 21h jusqu'au 24 à 15h UTC


231946Z 2321/2415 06010KT CAVOK
PROB40 2321/2407 6000 HZ
PROB30 2404/2407 4000 BR SCT006
BECMG 2411/2413 14016KT
PROB30
TEMPO 2413/2415 15018G32KT 3000 +TSRA BKN018CB
Pas de NOTAMs connus pour ce terrain.



MET'MAP, la Météo Aéronautique d'un coup d'oeil ! - Copyright ORBIFLY Décembre 2007 - Disclaimer

ORBIFLY MET'MAP TEAM :

Programmation & Développement : Alexandra Zaïnal
Conception & Développement : Baudouin d'Aumeries
Co-Programmation & Développement : Marc-Olivier Méhu
Soutien technique & logistique : Manuel Goepfert

Contact : metmap@orbifly.com




SOURCES & CREDITS :

   NOAA